THORAD AGENA D DEB, 4650

Orbit data source: Space-Track

THORAD AGENA D DEB, 4650 is space debris in SSO originally from a launch on Wed, 08 Apr 1970 UTC launched from the Air Force Western Test Range (AFWTR). Debris objects in space refer to the collection of defunct objects orbiting the Earth. Examples of debris include non-operational satellites, rocket bodies, and fragments generated from explosions, collisions, or faulty payload assembly.

Loading next visibility...
THORAD AGENA D DEB details
Identifier
4650, 1970-025AJ
Orbit
SSO
Last TLE update9 hours ago
Origin
Flag of USGSFC (US)
ManufacturerUnknown
MissionSpacecraft
Bus & MotorUnknown
MassUnknown
Launch date (UTC)
1970-04-08 (55 years ago)
Launch vehicleUnknown
Launch site
Air Force Western Test Range (AFWTR)
Object type
Payload
Rocket body
Debris
Shape & HBRUnknown
Radar Cross SectionSmall (<0.1 m²)

Expand to show TLE details & history

TLE from 9 hours ago
0 THORAD AGENA D DEB
1  4650U 70025AJ  24361.10528555  .00002569  00000-0  14070-2 0  9992
2  4650  99.8443  67.6843 0117251 125.7513 235.4625 14.09468514782241
Epoch: 2024-12-26T02:31Z
Definitive object data (Epoch: 2024-12-26T02:31:36.671Z)
Latitude-0.00006°
Longitude-65.30794°
Altitude912.855 km
Speed7.371 km/s
True Right ascension04h 30m 44s
True Declination0° 00' 00"
Sunlit
Object was in full shadow at TLE epoch
Visualization TLE readout
Latitude40.91375°
Longitude-73.51462°
Altitude855.955 km
Speed7.434 km/s
Apparent Right ascension01h 27m 38s
Apparent Declination4° 39' 09"
Sunlit
Object is in full shadow
Visualization observer readout
Local Sidereal Time10:35:52
Azimuth307.994° NW
Elevation-30.502°
Doppler factor1
Orbital elements
Apogee altitude943.27 km
Perigee altitude773.571 km
Semi-major axis7,236.558 km
Eccentricity0.0117251
Inclination99.8443°
RAAN67.6843°
Arg. of periapsis125.7513°
True anomaly234.3649°
Mean anomaly235.4625°
Eccentric anomaly234.91278°
Mean motion3.5257 °/min
BSTAR0.001407
Orbital period102.11 mins
Loading maneuver chart data...

THORAD AGENA D DEB Visibility forecast

Observer location: undefined°, undefined

Span
Click to sort rows by Start time (UTC) header in descending order
Start Az.
Max El. time (UTC)
Max El. Az.
Max El.
End time (UTC)
End Az.
7 mins2024-12-26 16:45:33.260Z45.234° ENE2024-12-26 16:49:33.260Z106.236° ESE24.064°2024-12-26 16:52:33.260Z148.309° SSE
7 mins2024-12-26 18:26:33.260Z349.061° N2024-12-26 18:29:33.260Z302.326° NW28.969°2024-12-26 18:33:33.260Z235.28° WSW
9 mins2024-12-27 04:12:33.260Z146.113° SSE2024-12-27 04:16:33.260Z85.504° E40.404°2024-12-27 04:21:33.260Z354.267° N
5 mins2024-12-27 05:55:33.260Z236.331° WSW2024-12-27 05:57:33.260Z260.764° W16.665°2024-12-27 06:00:33.260Z298.412° NW
|